[[{"header":{"parameterUnit":"m.s-1","parameterCategory":1,"la1":30.2991,"la2":30.254,"lo1":-89.0895,"lo2":-89.0444,"dy":0.0017,"dx":0.0017,"nx":28,"ny":28,"refTime":"2024-07-28T21:00:00:Z","depth":0,"parameterNumber":2,"parameterNumberName":"U-component_of_WINDS"},"data":[0,0,0,0,0,0,0,0,0,0,0,0,0,0,0,0,0,0,0,0,0,0,0,0,0,0,0,0,0,0,0,0,0,0,0,0,0,0,0,0,0,0,0,0,0,0,0,0,0,0,0,0,0,0,0,0,0,0,3.7852,3.7854,0,3.8005,3.8006,3.8008,3.7977,3.7975,3.7972,3.7969,3.8129,3.8135,3.8142,0,0,0,0,0,0,0,0,0,0,0,0,0,3.7535,3.7541,3.7852,3.7854,3.7856,3.8004,3.8006,3.8008,3.7978,3.7974,3.7971,3.7968,3.8126,3.8134,3.8143,0,0,0,0,0,0,0,0,0,0,0,0,0,3.7679,3.7543,3.7851,3.7858,3.786,3.8004,3.8006,3.8009,3.7979,3.7974,3.797,3.7966,3.8124,3.8134,3.8144,3.8291,0,0,3.8175,3.818,0,0,0,0,0,0,0,0,3.7671,3.769,3.7855,3.7858,3.7861,3.7967,3.7953,3.8104,3.798,3.7934,3.7969,3.7964,3.8079,3.8092,3.813,3.8299,3.8305,3.8176,3.8182,3.8187,3.819,0,0,0,0,0,0,0,3.7661,3.7684,3.7912,3.7858,3.7861,3.7854,3.787,3.7982,3.8028,3.7937,3.7936,3.7954,3.8079,3.812,3.8134,3.8308,3.8176,3.8185,3.8191,3.8195,3.8602,3.8607,0,0,0,0,0,0,3.7648,3.7676,3.7907,3.7917,3.7753,3.7863,3.7881,3.7938,3.8027,3.8036,3.7957,3.7952,3.8105,3.8122,3.8139,3.8316,3.8187,3.8196,3.8202,3.8598,3.8603,3.8608,0,0,0,0,0,0,3.7641,3.7669,3.7901,3.7796,3.7825,3.7873,3.7937,3.7943,3.7984,3.8042,3.805,3.7991,3.8102,3.8125,3.8253,3.8321,3.8201,3.821,3.8592,3.8599,3.8606,3.8671,0,0,0,0,0,0,3.7632,3.7667,3.7723,3.7797,3.783,3.8012,3.7941,3.7949,3.8001,3.7996,3.8075,3.8084,3.8101,3.8238,3.8263,3.8333,3.8218,3.8586,3.8595,3.8604,3.8663,3.8679,3.8693,0,0,0,0,0,3.7621,3.7737,3.7726,3.7754,3.7902,3.8016,3.8035,3.8051,3.8007,3.8064,3.81,3.8082,3.8309,3.8251,3.8279,3.8353,3.8582,3.8593,3.8603,3.8656,3.8676,3.8693,0,0,0,0,0,0,3.7671,3.7746,3.7736,3.7878,3.7941,3.8011,3.8083,3.8072,3.8149,3.814,3.8157,3.8176,3.8305,3.8342,3.8276,3.8499,3.844,3.8456,3.847,3.849,3.8504,3.8492,3.8227,0,0,0,0,0,3.7698,3.7784,3.7846,3.7966,3.7997,3.8035,3.8085,3.8092,3.8157,3.8184,3.823,3.8295,3.8381,3.8438,3.852,3.8668,3.8684,3.8733,3.8748,3.876,3.8774,3.8853,3.8874,3.8643,3.8642,3.8642,0,0,3.7756,3.7808,3.7861,3.7977,3.8026,3.8114,3.8057,3.8154,3.8219,3.8199,3.8321,3.8358,3.8432,3.857,3.8633,3.8604,3.8841,3.8773,3.8783,3.879,3.8866,3.8887,3.8907,3.865,3.8648,3.8647,0,0,3.7905,3.7954,3.8058,3.8108,3.8182,3.8206,3.8231,3.8302,3.8325,3.8448,3.8434,3.8513,3.8661,3.8713,3.876,3.8927,3.8912,3.8954,3.9033,3.9109,3.9127,3.9143,3.9201,3.9222,3.8968,3.8968,3.8968,0,3.7968,3.81,3.8113,3.821,3.8261,3.8245,3.835,3.8398,3.8496,3.8532,3.8498,3.8682,3.8731,3.888,3.892,3.8959,3.8987,3.8944,3.9123,3.914,3.9155,3.921,3.9232,3.8972,3.8972,3.8971,3.8971,0,3.8172,3.8263,3.8339,3.8431,3.8491,3.8592,3.862,3.8679,3.868,3.8707,3.8832,3.889,3.8983,3.9019,3.9022,3.9168,3.9147,3.9119,3.9059,3.9181,3.9233,3.9255,3.8979,3.8977,3.8976,3.8975,0,0,3.8357,3.8455,3.8482,3.8523,3.8603,3.8674,3.8774,3.8863,3.8912,3.8981,3.9064,3.9189,3.9162,3.9214,3.9223,3.929,3.9417,3.9253,3.9255,3.928,3.9579,3.9598,3.9622,3.9408,3.9412,3.9415,3.9572,0,3.8513,3.8687,3.8701,3.8858,3.8942,3.8927,3.9014,3.9073,3.9101,3.9176,3.9208,3.9295,3.9254,3.9285,3.9351,3.9387,3.9477,3.9376,3.9484,3.9488,3.9464,3.965,3.9672,3.9816,3.9592,3.9596,3.9598,0,3.8718,3.8789,3.8954,3.902,3.9056,3.9133,3.9215,3.9288,3.9354,3.9369,3.9426,3.9425,3.9528,3.9465,3.9605,3.9536,3.9581,3.9606,3.9612,3.9621,3.9549,3.9663,3.9863,3.9884,3.9631,3.9628,3.9626,0,3.8833,3.8972,3.9087,3.9123,3.9204,3.9258,3.9295,3.9356,3.9408,3.948,3.9514,3.9598,3.9643,3.9708,3.9729,3.9681,3.9868,3.9807,3.9883,3.9882,3.9922,3.9919,4.0131,3.9954,3.9954,3.9953,3.9953,0,3.9004,3.9105,3.914,3.9211,3.9323,3.9339,3.945,3.9483,3.9538,3.9615,3.9609,3.9681,3.9706,3.9783,3.98,3.9912,3.9934,3.9949,3.9952,3.9948,3.9946,3.9977,3.9967,3.9959,3.9958,3.9957,3.9956,0,3.9153,3.918,3.9305,3.937,3.9389,3.9469,3.9525,3.9593,3.9619,3.9717,3.9741,3.9782,3.9872,3.99,4.0009,4.0021,4.0151,4.0147,4.0129,4.0128,4.0202,4.0193,4.0439,4.0471,4.0276,4.0278,4.0279,0,3.9259,3.9336,3.9409,3.9459,3.9497,3.9579,3.9631,3.9649,3.9704,3.9784,3.9842,3.9931,4.0002,4.0147,4.0187,4.027,4.0266,4.0346,4.0278,4.0271,4.0264,4.0259,4.0265,4.0358,4.036,4.0362,4.0364,0,3.9444,3.9453,3.9529,3.9608,3.967,3.9734,3.9796,3.9838,3.9865,3.9927,4.0017,4.0073,4.0183,4.027,4.0354,4.0392,4.0382,4.0385,4.0406,4.0402,4.0387,4.0394,4.0161,4.0379,4.0377,4.0376,4.0375,4.0375,3.9574,3.964,3.9701,3.9784,3.9832,3.9889,3.9956,3.9989,4.0065,4.0155,4.0161,4.0259,4.0321,4.0433,4.0475,4.0551,4.0528,4.056,4.0568,4.0575,4.0579,4.0377,4.0567,4.0567,4.0566,4.0566,4.0566,0,3.9756,3.9794,3.9871,3.9956,4.0021,4.0005,4.0072,4.0128,4.0213,4.0272,4.0342,4.0445,4.053,4.0576,4.066,4.0712,4.071,4.0733,4.0729,4.0737,4.0596,4.0568,4.0734,4.0734,4.0734,4.0734,4.0734,4.0734,3.9859,3.997,3.9986,4.012,4.0158,4.0252,4.0292,4.0344,4.039,4.0505,4.0575,4.0604,4.0657,4.0745,4.0821,4.0832,4.0863,4.0889,4.0898,4.0765,4.0748,4.0731,4.0704,4.0896,4.0896,4.1032,4.1033,4.1034]},{"header":{"parameterUnit":"m.s-1","parameterCategory":1,"la1":30.2991,"la2":30.254,"lo1":-89.0895,"lo2":-89.0444,"dy":0.0017,"dx":0.0017,"nx":28,"ny":28,"refTime":"2024-07-28T21:00:00:Z","depth":0,"parameterNumber":3,"parameterNumberName":"V-component_of_WINDS"},"data":[0,0,0,0,0,0,0,0,0,0,0,0,0,0,0,0,0,0,0,0,0,0,0,0,0,0,0,0,0,0,0,0,0,0,0,0,0,0,0,0,0,0,0,0,0,0,0,0,0,0,0,0,0,0,0,0,0,0,1.3242,1.3242,0,1.3274,1.3274,1.3275,1.3254,1.3253,1.3252,1.3251,1.3284,1.3286,1.3288,0,0,0,0,0,0,0,0,0,0,0,0,0,1.3162,1.3164,1.3242,1.3242,1.3243,1.3274,1.3274,1.3275,1.3254,1.3253,1.3252,1.325,1.3284,1.3286,1.3288,0,0,0,0,0,0,0,0,0,0,0,0,0,1.3196,1.3165,1.3242,1.3236,1.3236,1.3274,1.3274,1.3275,1.3254,1.3253,1.3251,1.325,1.3283,1.3286,1.3288,1.3334,0,0,1.3297,1.3298,0,0,0,0,0,0,0,0,1.3194,1.3199,1.3237,1.3237,1.3236,1.3258,1.3259,1.3295,1.3255,1.3247,1.3251,1.3249,1.3277,1.328,1.3289,1.3336,1.3337,1.3297,1.3299,1.33,1.33,0,0,0,0,0,0,0,1.3192,1.3197,1.3255,1.3237,1.3237,1.3232,1.3235,1.3265,1.327,1.3248,1.3246,1.325,1.3277,1.3287,1.329,1.3338,1.3297,1.3299,1.3301,1.3302,1.3422,1.3423,0,0,0,0,0,0,1.319,1.3196,1.3254,1.3256,1.3211,1.3234,1.3238,1.3253,1.327,1.3271,1.3252,1.3249,1.3283,1.3287,1.3291,1.3345,1.33,1.3302,1.3304,1.342,1.3422,1.3424,0,0,0,0,0,0,1.3188,1.3195,1.3252,1.3225,1.3232,1.3237,1.3254,1.3254,1.3264,1.3272,1.3273,1.3261,1.3282,1.3287,1.3323,1.3346,1.3303,1.3306,1.3418,1.3421,1.3423,1.3454,0,0,0,0,0,0,1.3186,1.3195,1.3213,1.3226,1.3234,1.3284,1.3256,1.3256,1.3269,1.3266,1.3281,1.3283,1.3281,1.3319,1.3326,1.3349,1.3308,1.3416,1.3419,1.3422,1.3451,1.3457,1.3462,0,0,0,0,0,1.3183,1.322,1.3214,1.3221,1.3256,1.3286,1.329,1.3287,1.3271,1.3288,1.3293,1.3282,1.3342,1.3323,1.333,1.3354,1.3415,1.3418,1.3422,1.3448,1.3456,1.3462,0,0,0,0,0,0,1.3211,1.3222,1.3215,1.3257,1.327,1.3282,1.3304,1.3296,1.3314,1.3311,1.3307,1.3311,1.3348,1.3355,1.3333,1.3399,1.3376,1.3381,1.3393,1.34,1.3406,1.3404,1.331,0,0,0,0,0,1.3221,1.3245,1.3253,1.329,1.3297,1.3299,1.3312,1.3309,1.3323,1.3328,1.3336,1.335,1.3372,1.3386,1.3407,1.3451,1.3454,1.3471,1.3477,1.3481,1.3486,1.3509,1.3516,1.3435,1.3435,1.3435,0,0,1.3244,1.3253,1.3268,1.3296,1.3306,1.3329,1.3304,1.3331,1.3349,1.3333,1.3367,1.3373,1.3388,1.3428,1.3446,1.3435,1.3509,1.3486,1.3489,1.3492,1.3513,1.3521,1.3528,1.3438,1.3437,1.3437,0,0,1.3298,1.3307,1.3338,1.3349,1.3363,1.3365,1.3372,1.3385,1.3388,1.3422,1.341,1.343,1.3468,1.3479,1.349,1.3546,1.3536,1.3553,1.3582,1.3605,1.3611,1.3617,1.3636,1.3643,1.3557,1.3557,1.3557,0,1.3325,1.336,1.3356,1.3383,1.3395,1.338,1.3411,1.3421,1.3443,1.3451,1.3438,1.3484,1.3493,1.3535,1.3549,1.3558,1.3566,1.3551,1.3611,1.3616,1.3621,1.364,1.3647,1.3559,1.3559,1.3559,1.3558,0,1.3392,1.3417,1.344,1.346,1.3474,1.3503,1.3503,1.3518,1.3513,1.3515,1.3549,1.356,1.3581,1.3591,1.3587,1.3632,1.3624,1.3611,1.3588,1.3631,1.3648,1.3656,1.3562,1.3561,1.356,1.356,0,0,1.3465,1.3481,1.349,1.3498,1.3513,1.3532,1.3559,1.358,1.3593,1.3608,1.3631,1.3662,1.3649,1.3661,1.3658,1.3677,1.372,1.3661,1.3662,1.3672,1.377,1.378,1.3788,1.3713,1.3714,1.3716,1.3768,0,1.352,1.3568,1.3564,1.361,1.3632,1.3618,1.3642,1.3653,1.3656,1.3675,1.3678,1.37,1.3682,1.3688,1.3707,1.3711,1.374,1.3707,1.3734,1.3736,1.3731,1.3797,1.3808,1.3858,1.3775,1.3776,1.3777,0,1.359,1.3606,1.3654,1.3664,1.3673,1.3695,1.3713,1.3732,1.3744,1.3744,1.3757,1.3749,1.3777,1.3752,1.379,1.3768,1.3778,1.3782,1.3784,1.3786,1.3759,1.3802,1.3874,1.3881,1.3788,1.3787,1.3786,0,1.3639,1.3672,1.3705,1.3713,1.3725,1.3741,1.3747,1.3757,1.377,1.3785,1.3793,1.3812,1.3822,1.3837,1.3834,1.3817,1.3872,1.3848,1.3873,1.3873,1.3886,1.3885,1.3961,1.3893,1.3893,1.3892,1.3892,0,1.37,1.373,1.3727,1.3747,1.378,1.3774,1.3806,1.381,1.382,1.384,1.3829,1.3848,1.3844,1.3863,1.3861,1.3892,1.3897,1.3897,1.3897,1.3899,1.3898,1.3906,1.3902,1.3894,1.3894,1.3894,1.3893,0,1.376,1.3759,1.3794,1.3802,1.3805,1.3829,1.3836,1.3854,1.3855,1.3881,1.3887,1.3888,1.391,1.3909,1.3934,1.3932,1.397,1.3965,1.3966,1.3965,1.399,1.3988,1.4073,1.4084,1.4009,1.401,1.401,0,1.38,1.3822,1.3832,1.3845,1.3852,1.3872,1.3884,1.3879,1.3892,1.3907,1.3924,1.3944,1.396,1.3996,1.3999,1.4017,1.4013,1.4041,1.4016,1.4016,1.4013,1.4012,1.4014,1.4047,1.4047,1.4048,1.4049,0,1.387,1.3867,1.3885,1.3903,1.3917,1.3931,1.3943,1.3954,1.395,1.3965,1.3987,1.3999,1.4024,1.4044,1.4062,1.4067,1.4057,1.4057,1.4063,1.4066,1.4065,1.4065,1.398,1.4055,1.4054,1.4054,1.4053,1.4053,1.392,1.3939,1.3949,1.3969,1.3977,1.3989,1.4006,1.4009,1.4027,1.4046,1.4042,1.4066,1.4076,1.4098,1.4106,1.4124,1.4114,1.4124,1.4126,1.4129,1.4132,1.4062,1.4127,1.4127,1.4127,1.4127,1.4127,0,1.3989,1.3995,1.4013,1.403,1.4045,1.4034,1.4046,1.406,1.4081,1.4092,1.4107,1.4132,1.4151,1.4155,1.4173,1.4187,1.4183,1.4192,1.4191,1.4192,1.414,1.4132,1.4195,1.4195,1.4195,1.4195,1.4195,1.4195,1.4027,1.4058,1.4057,1.4092,1.4097,1.412,1.4128,1.4138,1.4146,1.4174,1.4189,1.4192,1.4199,1.4217,1.4234,1.4235,1.4242,1.4253,1.4252,1.4203,1.4196,1.419,1.4182,1.4255,1.4255,1.4302,1.4303,1.4303]}]]